Location: �couen
(49.0206°N, 2.3831°E)
Time: 06:42:33
(UTC+00:00)

Cosmos 1758 - Pass Details

Date: 29 May 2022
Orbit: 538 x 557 km, 82.5° (Epoch: 03 July)

Event Time Altitude Azimuth Distance (km) Brightness Sun altitude
Rises 22:01:52 0° 4° (N) 2,715 8.0 -15.4°
Reaches altitude 10° 22:04:43 10° 26° (NNE) 1,821 6.5 -15.6°
Maximum altitude 22:07:17 16° 66° (ENE) 1,461 5.5 -15.8°
Enters shadow 22:09:11 12° 98° (E) 1,667 5.5 -15.9°
